Regional Weather Roundup
Issued by NWS Albany, NY

Home | Current Version | Previous Version | Graphics & Text | Print | Product List | Glossary On
Versions: 1 2 3 4 5 6 7 8 9 10 11 12 13 14 15 16 17 18 19 20 21 22 23 24 25 26 27 28 29 30 31 32 33 34 35 36 37 38 39 40 41 42 43 44 45 46 47 48 49 50
000
ASUS41 KALY 260110
RWRALY

NEW YORK STATE HOURLY WEATHER ROUNDUP
NATIONAL WEATHER SERVICE ALBANY NY
800 PM EST SUN JAN 25 2015

NOTE: "FAIR" INDICATES FEW OR NO CLOUDS BELOW 12,000 FEET WITH NO
SIGNIFICANT WEATHER AND/OR NO OBSTRUCTIONS TO VISIBILITY.

NYZ032-033-038>043-046>054-057>066-NYZ062>081-260200-
EAST


CITY           SKY/WX    TMP DP  RH WIND       PRES   REMARKS
ALBANY         MOCLDY    18   2  49 NW14      29.99R WCI   4
GLENS FALLS    CLEAR     16   0  49 N7        30.01R WCI   6
POUGHKEEPSIE   MOCLDY    25   6  44 NE8       29.96R WCI  16
NEWBURGH       PTCLDY    25  12  58 NW7       29.94R WCI  17
MONTGOMERY     MOCLDY    27   7  42 W5        29.93R WCI  22
WHITE PLAINS   PTCLDY    28  10  46 NW6       29.91R WCI  22
ISLIP          MOCLDY    31  15  52 NW6       29.92R WCI  25
NEW YORK CITY  MOCLDY    34  12  40 N12       29.94R WCI  25
CENTRAL PARK   PTCLDY    35  10  35 VRB3      29.96R
$$

NYZ005>009-017-018-044>046-055-056-260200-
CENTRAL


CITY           SKY/WX    TMP DP  RH WIND       PRES   REMARKS
FULTON         PTCLDY     2  -3  80 CALM      30.06R
SYRACUSE       PTCLDY     7   2  80 NE3       30.05R
ROME           PTCLDY     7  -4  60 CALM      30.08R
ELMIRA         MOCLDY    17   9  70 CALM      29.97R
BINGHAMTON     PTCLDY    11   3  70 N6        29.90R WCI   1
MONTICELLO     MOCLDY    19   5  53 N8        29.90R WCI   9
$$

NYZ026>034-041>043-260200-
NORTH


CITY           SKY/WX    TMP DP  RH WIND       PRES   REMARKS
WATERTOWN      PTCLDY    -2  -8  76 E5        30.07R WCI -12
FORT DRUM      NOT AVBL
MASSENA        PTCLDY     6  -6  57 W8        30.11R WCI  -7
SARANAC LAKE   PTCLDY    -7 -12  79 CALM      29.92R
PLATTSBURGH    CLEAR      9  -4  55 W6        30.06R WCI  -1
$$

NYZ001>004-010>016-019>021-260200-
WEST


CITY           SKY/WX    TMP DP  RH WIND       PRES   REMARKS
NIAGARA FALLS  MOCLDY    14   6  70 NE7       30.01F WCI   4
BUFFALO        MOCLDY    14   4  64 NE7       30.00S WCI   4
DUNKIRK        CLOUDY    16   7  67 NE14      29.99R WCI   2
JAMESTOWN      CLOUDY    14   9  79 NE12      29.86R WCI   0
WELLSVILLE     CLOUDY    12   3  67 E5        29.87R WCI   4
ROCHESTER      PTCLDY    14   4  64 CALM      30.03S
PENN YAN       PTCLDY    13   4  67 CALM      29.99R
$$

             KEY
       WCI = WIND CHILL INDEX
       VSB = VISIBILITY
       HX  = HEAT INDEX
$$


USA.gov is the U.S. government's official web portal to all federal, state and local government web resources and services.